Tracking 18852 objects as of 23-Nov-2017
HD Live streaming from Space Station
objects crossing your sky now

LEMUR 2 PETERG

Track LEMUR 2 PETERG now!
10-day predictions
LEMUR 2 PETERG is classified as:


NORAD ID: 42841
Int'l Code: 2017-042S
Perigee: 591.2 km
Apogee: 609.6 km
Inclination: 97.6 °
Period: 96.5 minutes
Semi major axis: 6971 km
RCS: Unknown
Launch date: July 14, 2017
Source: United States (US)
Launch site: TYURATAM MISSILE AND SPACE COMPLEX (TTMTR)
aabbcc
Your satellite tracking list
Your tracking list is empty




NASA's NSSDC Master Catalog

Two Line Element Set (TLE):
1 42841U 17042S   17327.51145328  .00000995  00000-0  10463-3 0  9992
2 42841  97.6077 232.5699 0013170 153.9370 206.2514 14.91495178 19709
Source of the keplerian elements: AFSPC